�������l�o���
Date,Time,MP-1(��Sv/h),MP-2(��Sv/h),MP-3(��Sv/h),MP-4(��Sv/h),MP-5(��Sv/h),MP-6(��Sv/h),MP-7(��Sv/h),MP-8(��Sv/h),����,����(m/s),���J
2020/01/31,00:00,0.694,0.983,0.650,1.229,0.844,0.402,0.700,0.663,���k��,6.6,��
2020/01/31,00:10,0.693,0.982,0.649,1.229,0.845,0.401,0.701,0.664,���k��,5.0,��
2020/01/31,00:20,0.693,0.983,0.650,1.226,0.843,0.400,0.699,0.665,�k��,4.4,��
2020/01/31,00:30,0.695,0.981,0.651,1.230,0.845,0.400,0.699,0.665,�k��,4.6,��
2020/01/31,00:40,0.694,0.982,0.649,1.228,0.846,0.400,0.699,0.664,�k��,3.8,��
2020/01/31,00:50,0.696,0.982,0.650,1.230,0.846,0.401,0.699,0.665,�k�k��,3.8,��
2020/01/31,01:00,0.694,0.980,0.651,1.230,0.846,0.400,0.700,0.664,�k��,4.0,��
2020/01/31,01:10,0.694,0.983,0.650,1.229,0.846,0.401,0.699,0.665,�k��,4.4,��
2020/01/31,01:20,0.696,0.981,0.650,1.227,0.848,0.400,0.699,0.663,�k��,2.9,��
2020/01/31,01:30,0.697,0.984,0.649,1.227,0.845,0.399,0.699,0.664,�k��,2.7,��
2020/01/31,01:40,0.694,0.982,0.650,1.230,0.846,0.401,0.699,0.666,�k��,2.2,��
2020/01/31,01:50,0.695,0.981,0.650,1.228,0.846,0.402,0.699,0.665,���k��,2.1,��
2020/01/31,02:00,0.696,0.982,0.649,1.228,0.848,0.400,0.701,0.663,�k��,2.9,��
2020/01/31,02:10,0.695,0.982,0.650,1.229,0.846,0.401,0.700,0.663,���k��,5.8,��
2020/01/31,02:20,0.693,0.982,0.651,1.230,0.850,0.401,0.700,0.665,�k��,8.3,��
2020/01/31,02:30,0.695,0.982,0.650,1.231,0.849,0.400,0.699,0.665,�k��,9.9,��
2020/01/31,02:40,0.697,0.984,0.650,1.230,0.849,0.399,0.700,0.665,�k��,7.1,��
2020/01/31,02:50,0.695,0.983,0.648,1.228,0.847,0.401,0.700,0.668,�k��,6.3,��
2020/01/31,03:00,0.695,0.984,0.651,1.231,0.849,0.400,0.698,0.666,�k��,6.6,��
2020/01/31,03:10,0.694,0.983,0.651,1.229,0.849,0.401,0.699,0.666,�k��,6.0,��
2020/01/31,03:20,0.695,0.983,0.652,1.229,0.850,0.400,0.699,0.665,�k�k��,7.2,��
2020/01/31,03:30,0.696,0.982,0.650,1.229,0.850,0.400,0.699,0.665,�k�k��,7.4,��
2020/01/31,03:40,0.695,0.983,0.650,1.230,0.849,0.400,0.700,0.666,�k��,5.5,��
2020/01/31,03:50,0.693,0.981,0.652,1.232,0.849,0.399,0.699,0.666,�k��,6.3,��
2020/01/31,04:00,0.693,0.981,0.649,1.232,0.850,0.399,0.700,0.665,�k��,6.0,��
2020/01/31,04:10,0.696,0.984,0.650,1.231,0.847,0.400,0.700,0.665,�k��,6.9,��
2020/01/31,04:20,0.696,0.981,0.649,1.233,0.850,0.402,0.701,0.664,���k��,6.9,��
2020/01/31,04:30,0.694,0.980,0.649,1.231,0.850,0.399,0.700,0.667,�k��,6.9,��
2020/01/31,04:40,0.695,0.983,0.653,1.229,0.849,0.400,0.699,0.665,���k��,6.9,��
2020/01/31,04:50,0.695,0.981,0.651,1.231,0.849,0.400,0.701,0.665,�k��,6.4,��
2020/01/31,05:00,0.695,0.983,0.651,1.230,0.850,0.400,0.699,0.664,�k��,6.9,��
2020/01/31,05:10,0.693,0.984,0.652,1.230,0.849,0.399,0.700,0.664,�k��,5.2,��
2020/01/31,05:20,0.695,0.984,0.651,1.233,0.849,0.399,0.700,0.666,�k��,4.6,��
2020/01/31,05:30,0.694,0.982,0.651,1.229,0.848,0.399,0.700,0.666,�k��,5.0,��
2020/01/31,05:40,0.694,0.983,0.651,1.233,0.850,0.399,0.700,0.665,���k��,4.1,��
2020/01/31,05:50,0.695,0.983,0.650,1.230,0.849,0.400,0.699,0.665,�k��,4.6,��
2020/01/31,06:00,0.696,0.984,0.650,1.232,0.850,0.399,0.701,0.665,�k��,4.6,��
2020/01/31,06:10,0.694,0.983,0.652,1.231,0.849,0.398,0.699,0.664,�k��,3.8,��
2020/01/31,06:20,0.695,0.985,0.650,1.229,0.849,0.399,0.700,0.666,�k�k��,4.7,��
2020/01/31,06:30,0.693,0.985,0.651,1.229,0.850,0.399,0.702,0.666,�k��,4.9,��
2020/01/31,06:40,0.696,0.985,0.651,1.232,0.849,0.399,0.700,0.665,���k��,6.0,��
2020/01/31,06:50,0.694,0.984,0.651,1.230,0.847,0.399,0.700,0.663,���k��,5.3,��
2020/01/31,07:00,0.694,0.983,0.651,1.230,0.850,0.398,0.700,0.665,���k��,5.2,��
2020/01/31,07:10,0.694,0.983,0.650,1.228,0.848,0.400,0.701,0.666,�k��,3.4,��
2020/01/31,07:20,0.694,0.985,0.650,1.232,0.849,0.399,0.700,0.665,�k��,4.6,��
2020/01/31,07:30,0.694,0.984,0.650,1.231,0.851,0.400,0.701,0.664,�k��,7.7,��
2020/01/31,07:40,0.692,0.983,0.649,1.230,0.849,0.400,0.701,0.664,�k��,8.5,��
2020/01/31,07:50,0.693,0.982,0.649,1.234,0.849,0.399,0.702,0.665,�k��,2.4,��
2020/01/31,08:00,0.694,0.982,0.650,1.233,0.851,0.399,0.700,0.664,�k�k��,2.0,��
2020/01/31,08:10,0.694,0.984,0.649,1.230,0.850,0.400,0.701,0.666,�k��,2.6,��
2020/01/31,08:20,0.694,0.984,0.649,1.233,0.851,0.397,0.701,0.666,�k�k��,3.4,��
2020/01/31,08:30,0.695,0.984,0.651,1.232,0.851,0.396,0.700,0.665,�k��,2.4,��
2020/01/31,08:40,0.696,0.985,0.649,1.232,0.850,0.396,0.701,0.665,���k��,3.8,��
2020/01/31,08:50,0.695,0.982,0.647,1.234,0.848,0.396,0.700,0.666,�k��,2.5,��
2020/01/31,09:00,0.694,0.982,0.650,1.230,0.849,0.397,0.702,0.665,���k��,3.4,��
2020/01/31,09:10,0.696,0.983,0.648,1.228,0.851,0.398,0.699,0.665,�k��,6.6,��
2020/01/31,09:20,0.697,0.980,0.648,1.227,0.851,0.400,0.700,0.664,�k��,6.1,��
2020/01/31,09:30,0.696,0.980,0.648,-,0.852,0.399,0.700,0.666,�k�k��,4.4,��
2020/01/31,09:40,0.693,0.981,0.650,-,0.850,0.398,0.699,0.666,�k��,6.4,��
2020/01/31,09:50,0.695,0.980,0.649,-,0.851,0.398,0.701,0.664,�k��,5.5,��
2020/01/31,10:00,0.695,0.981,0.652,-,0.852,0.399,0.699,0.666,�k��,7.1,��
2020/01/31,10:10,0.697,0.978,0.654,-,0.852,0.400,0.699,0.667,�k��,6.6,��
2020/01/31,10:20,0.695,0.984,0.649,-,0.851,0.400,0.697,0.665,�k��,6.4,��
2020/01/31,10:30,0.695,0.980,0.650,-,0.852,0.400,0.697,0.664,�k��,6.3,��
2020/01/31,10:40,0.697,0.980,0.652,-,0.853,0.400,0.699,0.665,�k��,6.7,��
2020/01/31,10:50,0.695,0.980,0.650,-,0.852,0.399,0.698,0.666,�k�k��,6.0,��
2020/01/31,11:00,0.697,0.982,0.646,-,0.853,0.400,0.698,0.667,�k��,4.3,��
2020/01/31,11:10,0.697,0.979,0.643,1.226,0.855,0.400,0.698,0.666,�k��,6.3,��
2020/01/31,11:20,0.696,0.981,0.645,1.221,0.852,0.401,0.697,0.665,�k��,5.5,��
2020/01/31,11:30,0.695,0.981,-,1.224,0.854,0.399,0.699,0.667,�k��,5.3,��
2020/01/31,11:40,0.697,0.980,-,1.225,0.855,0.401,0.698,0.668,�k��,6.4,��
2020/01/31,11:50,0.697,0.982,-,1.225,0.853,0.399,0.698,0.668,�k��,5.6,��
2020/01/31,12:00,0.698,0.983,0.642,1.229,0.854,0.401,0.698,0.666,�k��,5.8,��
2020/01/31,12:10,0.698,0.985,0.645,1.231,0.855,0.399,0.699,0.667,���k��,5.3,��
2020/01/31,12:20,0.699,0.987,0.648,1.233,0.856,0.400,0.697,0.667,���k��,6.0,��
2020/01/31,12:30,0.697,0.988,0.648,1.233,0.857,0.399,0.699,0.668,�k��,4.2,��
2020/01/31,12:40,0.700,0.987,0.650,1.234,0.853,0.400,0.698,0.669,�k��,6.0,��
2020/01/31,12:50,0.698,0.986,0.650,1.234,0.857,0.400,0.701,0.666,�k��,7.7,��
2020/01/31,13:00,0.699,0.983,0.649,1.234,0.853,0.400,0.700,0.667,�k��,8.9,��
2020/01/31,13:10,0.697,0.984,0.647,1.232,0.851,0.400,0.699,0.666,�k��,7.1,�L
2020/01/31,13:20,0.698,0.986,0.647,1.233,0.855,0.400,0.700,0.667,�k��,6.3,��
2020/01/31,13:30,0.698,0.988,0.646,1.234,0.855,0.399,0.698,0.666,�k��,6.9,��
2020/01/31,13:40,0.697,0.988,0.647,1.235,0.857,0.400,0.699,0.667,�k��,4.9,��
2020/01/31,13:50,0.700,0.990,0.647,1.236,0.857,0.400,0.700,0.666,��,5.3,��
2020/01/31,14:00,0.699,0.991,0.648,1.235,0.855,0.400,0.699,0.666,�k��,6.0,��
2020/01/31,14:10,0.697,0.987,0.647,1.234,0.855,0.400,0.699,0.669,�k��,5.6,��
2020/01/31,14:20,0.696,0.988,0.647,1.233,0.857,0.401,0.699,0.665,�k��,5.5,��
2020/01/31,14:30,0.697,0.988,0.649,1.236,0.857,0.401,0.699,0.667,�k��,5.6,��
2020/01/31,14:40,0.698,0.989,0.647,1.235,0.856,0.401,0.701,0.666,�k��,6.0,��
2020/01/31,14:50,0.698,0.986,0.647,1.236,0.854,0.402,0.700,0.665,�k��,5.2,��
2020/01/31,15:00,0.698,0.988,0.645,1.235,0.854,0.402,0.701,0.664,�k��,3.8,��
2020/01/31,15:10,0.696,0.988,0.647,1.235,0.855,0.401,0.699,0.665,�k��,4.9,��
2020/01/31,15:20,0.696,0.987,0.644,1.238,0.855,0.401,0.700,0.667,�k��,6.6,��
2020/01/31,15:30,0.697,0.988,0.646,1.238,0.854,0.401,0.699,0.667,�k��,5.6,��
2020/01/31,15:40,0.696,0.990,0.648,1.237,0.854,0.402,0.700,0.666,�k��,4.4,��
2020/01/31,15:50,0.699,0.989,0.649,1.236,0.855,0.402,0.701,0.668,���k��,6.6,��
2020/01/31,16:00,0.696,0.991,0.651,1.237,0.854,0.402,0.699,0.665,���쐼,6.0,��
2020/01/31,16:10,0.697,0.993,0.649,1.236,0.855,0.403,0.697,0.668,��,7.7,��
2020/01/31,16:20,0.697,0.994,0.650,1.235,0.856,0.400,0.700,0.665,��,7.2,��
2020/01/31,16:30,0.697,0.992,0.650,1.237,0.854,0.400,0.699,0.667,��,6.3,��
2020/01/31,16:40,0.697,0.992,0.649,1.236,0.853,0.402,0.700,0.666,���쐼,5.0,��
2020/01/31,16:50,0.697,0.993,0.650,1.237,0.856,0.402,0.700,0.667,���쐼,4.6,��
2020/01/31,17:00,0.697,0.990,0.649,1.239,0.853,0.401,0.700,0.667,��,3.4,��
2020/01/31,17:10,0.697,0.990,0.648,1.237,0.856,0.403,0.701,0.667,���k��,1.9,��
2020/01/31,17:20,0.695,0.993,0.651,1.237,0.857,0.401,0.702,0.666,���k��,3.8,��
2020/01/31,17:30,0.697,0.991,0.649,1.235,0.855,0.403,0.700,0.664,��,2.7,��
2020/01/31,17:40,0.695,0.991,0.648,1.236,0.855,0.402,0.700,0.665,��,6.0,��
2020/01/31,17:50,0.696,0.990,0.649,1.237,0.857,0.400,0.701,0.666,���k��,5.3,��
2020/01/31,18:00,0.695,0.994,0.651,1.236,0.858,0.401,0.703,0.665,���k��,5.2,��
2020/01/31,18:10,0.695,0.989,0.650,1.235,0.857,0.403,0.699,0.667,�k��,3.4,��
2020/01/31,18:20,0.695,0.991,0.649,1.236,0.855,0.401,0.700,0.667,���k��,6.3,��
2020/01/31,18:30,0.696,0.990,0.650,1.236,0.858,0.401,0.700,0.667,���k��,6.3,��
2020/01/31,18:40,0.695,0.992,0.649,1.236,0.857,0.402,0.701,0.666,���k��,7.2,��
2020/01/31,18:50,0.697,0.993,0.651,1.237,0.859,0.403,0.702,0.666,��,5.5,��
2020/01/31,19:00,0.696,0.990,0.650,1.236,0.858,0.402,0.701,0.667,���k��,6.4,��
2020/01/31,19:10,0.693,0.992,0.650,1.237,0.856,0.401,0.701,0.666,��,7.7,��
2020/01/31,19:20,0.695,0.991,0.650,1.237,0.857,0.401,0.700,0.666,���k��,7.8,��
2020/01/31,19:30,0.694,0.992,0.651,1.236,0.858,0.402,0.700,0.665,��,7.7,��
2020/01/31,19:40,0.695,0.994,0.650,1.237,0.857,0.401,0.700,0.667,��,7.2,��
2020/01/31,19:50,0.695,0.991,0.650,1.238,0.857,0.400,0.700,0.665,��,6.4,��
2020/01/31,20:00,0.694,0.991,0.649,1.236,0.857,0.401,0.701,0.666,���쐼,6.4,��
2020/01/31,20:10,0.695,0.991,0.649,1.236,0.857,0.401,0.700,0.664,���쐼,5.6,��
2020/01/31,20:20,0.695,0.990,0.649,1.236,0.859,0.401,0.703,0.667,��,3.9,��
2020/01/31,20:30,0.694,0.991,0.651,1.236,0.857,0.399,0.700,0.665,���k��,1.9,��
2020/01/31,20:40,0.694,0.992,0.650,1.235,0.856,0.401,0.700,0.666,���k��,1.0,��
2020/01/31,20:50,0.695,0.995,0.649,1.237,0.857,0.400,0.702,0.664,���k��,2.5,��
2020/01/31,21:00,0.695,0.990,0.650,1.236,0.856,0.402,0.700,0.664,���쐼,1.8,��
2020/01/31,21:10,0.696,0.990,0.648,1.238,0.857,0.403,0.702,0.666,���k��,5.2,��
2020/01/31,21:20,0.698,0.992,0.649,1.235,0.857,0.402,0.700,0.666,���k��,6.0,��
2020/01/31,21:30,0.695,0.991,0.650,1.236,0.856,0.400,0.701,0.666,���k��,5.5,��
2020/01/31,21:40,0.695,0.991,0.650,1.239,0.859,0.401,0.699,0.666,��,4.6,��
2020/01/31,21:50,0.694,0.990,0.650,1.236,0.858,0.401,0.700,0.666,���k��,3.6,��
2020/01/31,22:00,0.693,0.990,0.651,1.237,0.856,0.400,0.701,0.664,���k��,3.9,��
2020/01/31,22:10,0.695,0.990,0.649,1.235,0.856,0.402,0.701,0.666,���k��,6.0,��
2020/01/31,22:20,0.695,0.993,0.649,1.237,0.857,0.402,0.702,0.668,��,7.4,��
2020/01/31,22:30,0.697,0.991,0.649,1.237,0.856,0.400,0.702,0.665,��,6.0,��
2020/01/31,22:40,0.693,0.990,0.651,1.238,0.857,0.400,0.701,0.666,���k��,6.9,��
2020/01/31,22:50,0.695,0.990,0.648,1.239,0.856,0.402,0.701,0.665,���k��,3.8,��
2020/01/31,23:00,0.697,0.990,0.649,1.236,0.856,0.400,0.701,0.667,���k��,1.1,��
2020/01/31,23:10,0.695,0.990,0.649,1.236,0.857,0.402,0.701,0.668,�k��,1.3,��
2020/01/31,23:20,0.695,0.989,0.649,1.235,0.857,0.400,0.701,0.666,��,1.6,��
2020/01/31,23:30,0.695,0.990,0.650,1.236,0.857,0.401,0.701,0.667,��,4.9,��
2020/01/31,23:40,0.693,0.991,0.649,1.235,0.856,0.400,0.701,0.666,���k��,5.0,��
2020/01/31,23:50,0.694,0.992,0.649,1.236,0.858,0.401,0.700,0.665,���k��,5.0,��
